Flag for Germany Weather past 2 weeks in Völklingen, Saarland, Germany

Now
46 °F

Clear.


Feels Like: 46 °F
Forecast: 42 / 69 °F
Wind: 2 mph from North

Location: Saarbruecken / Ensheim

Current Time: May 31, 2015 at 12:49:21 AM

Latest Report: May 31, 2015 at 12:20 AM


Visibility: 10 mi

Pressure: 30.07 "Hg

Humidity: 76%

Dew point: 39 °F

Location of VölklingenLocation

Historic Weather in Völklingen — Graph

°F

Völklingen temperature yesterday

Maximum temperature yesterday: 63 °F (at 4:50 PM)
Minimum temperature yesterday: 46 °F (at 11:20 PM)
Average temperature yesterday: 54 °F

Past Weeks' High & Low Weather Summary

 TemperatureHumidityPressure
High68 °F (May 18, 3:20 PM)100% (May 21, 5:20 AM)30.33 "Hg (May 21, 5:20 AM)
Low37 °F (May 21, 4:20 AM)34% (May 21, 7:20 PM)29.74 "Hg (May 18, 6:20 PM)
Average54 °F67%30.07 "Hg
* Reported May 15 11:20 PM — May 30 11:20 PM, Völklingen, Weather by CustomWeather, © 2015

Note: Actual official high and low records may vary slightly from our data, if they occured in-between our weather recording intervals... More about our weather records

Advertising

Völklingen weather history for previous 24 hours

 ConditionsComfort  
Time TempWeatherWind HumidityBarometerVisibility
11:20 PM
Sat, May 30
46 °FClear.2 mph76%30.07 "Hg10 mi
10:50 PM48 °FClear.No wind66%30.07 "Hg10 mi
10:20 PM50 °FSunny.No wind67%30.07 "Hg10 mi
9:50 PM52 °FSunny.2 mph58%30.07 "Hg10 mi
9:20 PM54 °FSunny.2 mph54%30.04 "Hg10 mi
8:50 PM55 °FSunny.6 mph51%30.04 "Hg10 mi
8:20 PM57 °FSunny.9 mph48%30.04 "Hg10 mi
7:50 PM57 °FSunny.9 mph48%30.04 "Hg10 mi
7:20 PM59 °FSunny.10 mph45%30.04 "Hg10 mi
6:50 PM61 °FSunny.14 mph45%30.04 "Hg10 mi
6:20 PM59 °FPassing clouds.13 mph45%30.04 "HgN/A
5:50 PM59 °FPassing clouds.12 mph48%30.04 "HgN/A
5:20 PM61 °FPassing clouds.10 mph45%30.04 "HgN/A
4:50 PM63 °FPassing clouds.15 mph39%30.04 "HgN/A
4:20 PM61 °FPassing clouds.17 mph45%30.04 "HgN/A
3:50 PM61 °FPartly sunny.17 mph45%30.01 "HgN/A
3:20 PM59 °FBroken clouds.20 mph48%30.04 "HgN/A
2:50 PM59 °FBroken clouds.16 mph48%30.01 "HgN/A
2:20 PM57 °FBroken clouds.15 mph55%30.01 "HgN/A
1:50 PM57 °FBroken clouds.17 mph55%30.01 "HgN/A
1:20 PM59 °FPartly sunny.20 mph48%30.01 "HgN/A
12:50 PM59 °FPartly sunny.17 mph59%30.01 "HgN/A
12:20 PM55 °FBroken clouds.12 mph63%30.01 "HgN/A
11:50 AM55 °FBroken clouds.13 mph67%30.01 "HgN/A
11:20 AM54 °FPartly sunny.13 mph72%30.01 "HgN/A
10:50 AM55 °FPartly sunny.14 mph63%29.98 "HgN/A
10:20 AM52 °FBroken clouds.10 mph77%30.01 "HgN/A
9:50 AM52 °FSprinkles. Broken clouds.14 mph77%29.98 "HgN/A
9:20 AM52 °FBroken clouds.10 mph77%29.98 "HgN/A
8:50 AM50 °FBroken clouds.10 mph82%29.98 "HgN/A
8:20 AM50 °FPartly sunny.13 mph82%29.98 "HgN/A
7:50 AM50 °FPartly sunny.12 mph82%29.95 "HgN/A
7:20 AM50 °FBroken clouds.9 mph82%29.95 "HgN/A
6:50 AM48 °FBroken clouds.9 mph87%29.92 "HgN/A
6:20 AM48 °FLight rain. Partly cloudy.12 mph87%29.92 "HgN/A
5:50 AM50 °FLight rain. Partly cloudy.15 mph82%29.92 "HgN/A
5:20 AM50 °FLight rain. Partly cloudy.12 mph88%29.89 "HgN/A
4:50 AM50 °FSprinkles. Partly cloudy.12 mph94%29.89 "HgN/A
4:20 AM52 °FSprinkles. Passing clouds.14 mph88%29.89 "Hg5 mi
3:50 AM54 °FSprinkles. Partly cloudy.14 mph82%29.89 "HgN/A
3:20 AM52 °FPassing clouds.12 mph88%29.86 "HgN/A
2:50 AM54 °FClear.13 mph82%29.86 "Hg10 mi
2:20 AM54 °FPassing clouds.13 mph82%29.86 "HgN/A
1:50 AM54 °FClear.13 mph77%29.86 "Hg10 mi
1:20 AM54 °FPassing clouds.12 mph77%29.86 "HgN/A
12:50 AM55 °FPassing clouds.13 mph72%29.86 "HgN/A
12:20 AM55 °FPassing clouds.12 mph72%29.86 "HgN/A
Weather by CustomWeather, © 2015

See weather overviewHow to use our weather pages